KAZEOSAT 1

Last updated on Sun Oct 19 2025 00:02:30 GMT+0000 (Coordinated Universal Time)

1 39731U 14024A 25291.28086670 .00000296 00000+0 10317-3 0 9991 2 39731 98.3490 4.4179 0001261 88.3663 271.7671 14.42012974603696
UTC large
Height (km)
Speed (km/s)
/
Latitude / Longitude
Inclination (degrees)
Orbital Period (minutes)
Azimuth
Elevation
Range (km)
Doppler Factor

Next 0 passes for location: London (51.5072 / 0.1276)

Sorry there are no passes over London.